RH
27 28 29 27 27 28 28 30 32 34 38 42 47 50 52 56 58 61 64 66 69 69 67 65 61 59 57 54 52 50 48 48 48 48 49 50 52 53 55 57 59 61 64 68 73 77 82 88 94 96 92 85 80 77 73 68 62 47 27 15 15 16 16 18 18 16 17 20 22 22 21 21 22 20 20 20 20 21 23 26 27 28 26 23 21
29 29 30 29 29 29 29 30 31 34 37 41 46 49 52 56 58 62 66 67 70 71 70 68 65 61 59 55 53 51 50 49 49 49 50 51 52 54 55 57 59 61 64 68 72 76 82 90 96 97 93 86 81 77 74 70 63 48 28 16 15 16 17 18 19 19 18 20 23 24 22 23 24 22 21 21 20 20 21 22 23 24 24 23 22
29 31 32 32 33 33 33 33 32 35 40 43 47 51 55 59 61 64 67 68 70 72 71 70 67 64 61 58 55 53 52 52 51 51 51 52 53 54 55 57 59 62 65 68 72 78 84 91 97 98 93 86 82 79 75 70 62 46 26 17 17 17 18 20 22 23 21 21 26 27 24 23 23 24 24 23 22 22 21 21 23 23 24 24 24
29 31 33 34 36 36 35 35 36 40 45 49 53 57 60 62 65 67 69 71 71 72 72 70 69 67 64 61 59 57 57 56 55 55 55 54 54 55 56 58 60 63 66 70 75 80 86 92 97 98 93 87 82 79 74 68 59 44 26 19 19 19 20 22 24 26 26 25 27 30 30 27 25 25 27 26 24 25 24 24 25 25 26 28 29
31 33 34 37 37 37 37 37 40 45 51 56 60 63 65 66 68 70 72 73 72 72 72 71 70 69 68 66 65 64 63 62 62 60 59 57 57 57 58 60 63 66 70 75 79 83 89 94 98 97 92 86 82 78 73 66 56 40 26 21 22 22 23 25 27 29 32 32 31 34 35 31 27 27 29 30 27 26 27 26 27 29 31 33 33
33 34 37 39 39 38 38 39 44 51 58 64 67 67 68 68 70 73 74 74 74 73 73 72 72 72 71 71 70 70 69 68 67 65 63 63 62 63 65 67 70 74 77 81 84 89 94 97 98 96 91 87 84 78 71 63 51 37 27 25 26 27 29 31 34 37 40 40 38 40 41 37 32 29 31 34 32 29 30 30 30 32 34 35 34
36 37 40 40 39 38 39 42 48 56 64 69 70 70 70 70 72 75 77 77 77 77 76 76 76 75 75 75 74 74 73 72 72 71 71 70 71 72 75 77 79 82 85 88 91 95 99 99 97 95 92 89 83 77 69 59 46 34 29 29 30 33 35 38 42 46 48 48 45 44 43 41 39 34 33 37 37 34 35 37 34 32 34 36 36
39 41 41 40 38 38 39 42 47 54 60 62 64 66 68 70 73 75 77 79 79 80 80 80 80 80 80 80 80 80 79 79 80 80 79 79 81 83 85 87 89 90 92 94 97 100 100 100 98 96 92 88 82 75 65 53 42 35 33 34 35 37 39 42 47 51 52 51 48 46 47 48 46 39 35 38 39 36 36 39 37 35 37 40 41
42 43 41 40 40 41 42 45 47 49 53 56 60 66 69 73 75 77 79 81 82 84 85 85 86 86 86 87 87 87 87 87 88 88 89 89 90 92 94 95 95 96 98 99 100 101 100 100 99 96 91 86 79 71 61 50 41 36 35 37 40 42 45 48 53 55 56 56 52 49 53 54 47 41 40 42 43 42 42 44 45 46 48 50 49
45 44 43 44 45 47 48 49 50 52 55 59 65 71 73 75 77 80 83 84 86 88 89 90 91 91 92 92 92 93 93 94 95 96 97 97 97 98 99 99 100 100 101 102 100 99 100 101 99 95 90 84 75 67 58 49 41 37 37 39 42 46 51 57 59 58 59 60 56 55 59 56 49 49 51 50 52 56 57 57 57 58 60 62 60
46 46 48 49 50 52 53 53 54 55 56 60 65 68 71 72 73 75 78 79 82 85 88 92 93 94 95 96 96 97 96 97 99 99 100 100 100 100 100 101 101 101 101 101 101 100 100 100 98 94 88 81 71 64 56 48 42 40 42 44 45 50 56 61 61 61 63 63 58 60 66 61 55 57 59 58 61 66 67 67 69 70 70 74 71
50 52 53 55 56 57 58 57 58 58 60 62 63 64 66 66 67 69 71 74 78 82 85 89 91 92 94 95 96 96 96 97 98 99 100 101 100 101 101 101 101 102 102 101 100 101 102 101 97 91 84 74 67 61 54 47 44 44 47 51 54 58 60 61 62 63 65 65 66 71 72 68 67 67 66 67 70 74 76 75 75 76 78 83 83
56 58 60 61 62 62 61 61 62 62 63 62 61 62 63 64 66 68 70 73 76 79 83 85 87 89 91 92 94 95 96 98 99 100 101 101 101 100 100 101 101 101 101 101 102 102 100 97 92 85 78 73 66 59 52 48 49 52 57 64 68 67 65 70 77 82 82 81 85 85 77 74 79 74 68 76 85 87 89 88 85 86 86 86 86
64 66 67 67 66 66 66 67 68 67 66 66 66 67 68 70 72 73 75 77 79 82 85 87 90 92 94 96 98 98 99 100 99 101 101 100 101 100 99 101 101 101 101 101 101 101 99 95 89 82 76 71 63 57 54 53 54 59 66 74 79 77 77 85 93 96 96 97 100 96 84 83 87 76 65 76 89 90 88 86 84 87 86 85 85
72 73 73 72 72 72 73 73 73 73 73 73 74 74 74 75 76 77 78 80 83 86 90 94 97 98 99 100 100 100 100 100 100 101 101 100 100 100 100 100 99 100 101 100 100 101 100 97 94 88 80 69 58 53 52 52 57 67 75 80 84 86 89 92 87 81 84 93 101 102 93 87 86 76 63 66 74 75 74 74 76 82 87 90 93
79 79 78 78 77 78 78 79 80 80 81 80 79 78 78 77 77 77 78 79 82 85 89 93 97 100 101 101 101 101 101 100 101 101 101 101 101 100 101 101 101 101 100 100 101 100 100 101 100 93 81 64 51 45 48 58 71 82 91 94 91 93 96 89 77 70 74 81 89 96 94 86 82 81 77 78 81 79 78 80 81 85 92 98 99
82 82 82 82 82 83 84 84 86 86 86 85 83 81 79 77 76 75 74 74 76 78 81 85 88 92 95 94 94 95 94 94 95 96 96 97 99 99 99 97 99 101 100 101 101 100 100 101 99 96 86 64 44 39 52 79 94 93 97 101 97 98 100 88 75 74 78 77 78 88 96 96 94 94 92 92 93 92 92 96 95 94 97 101 101
85 86 86 86 86 86 88 89 91 91 89 88 86 83 82 80 79 77 76 75 74 75 76 78 80 81 82 83 83 84 84 85 87 88 88 88 88 88 88 90 95 99 101 101 101 101 102 101 100 104 94 65 41 34 49 83 105 101 99 102 99 101 101 88 80 82 83 79 77 83 92 95 96 100 98 94 95 98 102 102 100 99 101 103 102
89 89 89 89 89 90 91 93 93 92 91 89 87 86 85 84 84 84 85 85 83 81 78 77 79 79 79 81 81 82 83 83 83 82 78 71 62 54 60 79 94 97 96 96 95 95 97 95 91 88 77 61 54 53 59 81 100 100 99 101 100 100 95 85 84 87 85 82 81 79 79 77 76 83 88 88 89 94 100 101 100 101 101 100 101
90 92 93 93 94 94 95 95 94 93 93 91 90 90 89 89 90 90 91 91 90 88 85 82 82 82 82 83 82 81 79 73 67 61 52 43 35 29 44 78 99 99 95 93 93 94 89 77 63 54 52 56 63 64 69 85 98 98 100 103 103 101 97 91 91 91 90 91 91 87 85 81 75 73 75 75 75 75 81 90 97 100 101 101 100
93 95 96 95 96 96 96 95 94 93 93 92 92 93 92 92 94 93 94 94 91 90 88 86 85 84 83 80 73 65 58 49 41 35 29 26 25 25 45 75 91 94 94 95 98 99 88 68 51 45 46 52 58 58 62 80 98 100 96 97 97 97 97 98 99 99 99 100 99 98 99 98 93 88 82 80 79 74 72 74 79 86 93 98 100
94 96 97 96 97 96 95 95 95 94 95 95 93 93 92 94 95 94 92 90 87 85 82 80 80 78 71 62 52 41 35 30 26 23 22 23 24 28 47 72 86 90 94 98 100 98 88 71 57 52 53 57 61 57 51 65 90 97 92 93 98 97 96 99 102 102 102 102 101 101 101 100 98 93 86 82 80 77 75 72 70 73 77 81 86
95 96 97 97 96 97 96 96 93 88 82 75 68 65 65 66 67 68 68 68 67 65 61 58 59 54 44 36 31 27 25 26 24 22 21 22 24 30 44 69 93 100 98 99 100 98 96 90 77 71 74 76 72 64 60 73 92 97 92 92 94 94 95 100 102 102 101 101 101 101 100 99 99 98 93 87 81 77 75 73 71 72 74 75 77
97 97 97 97 94 90 83 73 60 49 39 32 28 27 28 28 29 31 34 37 40 40 37 36 36 32 26 24 23 22 24 25 24 24 24 24 28 32 37 53 83 101 102 101 102 100 100 100 94 88 88 88 85 84 87 94 98 97 96 95 93 93 98 101 102 101 101 100 100 101 100 100 100 98 94 89 87 86 84 80 75 72 71 71 73
97 96 92 84 71 57 44 32 23 18 16 16 17 17 18 19 20 21 22 24 25 26 25 25 26 25 24 24 24 24 25 26 26 26 26 27 29 33 37 45 63 81 90 93 95 97 99 101 101 97 93 92 94 96 97 97 96 97 98 98 98 100 101 101 100 100 101 100 100 101 101 100 100 96 90 90 94 98 99 97 91 83 76 72 71
83 75 62 47 32 23 18 16 17 17 18 19 20 20 22 22 22 24 25 25 26 27 27 28 28 28 29 30 30 30 30 30 31 30 31 33 32 32 38 46 50 57 65 68 69 73 78 80 81 80 77 76 78 80 83 89 93 94 93 92 93 95 96 98 99 98 98 99 99 99 100 100 102 101 97 97 100 101 100 100 99 93 87 82 77
48 37 28 20 17 17 18 19 20 22 23 24 25 26 27 28 29 29 30 31 32 32 32 34 34 34 35 36 37 38 37 36 36 36 38 41 43 43 47 51 53 54 56 57 57 61 67 72 77 79 78 75 71 68 69 72 75 78 79 79 80 81 83 86 88 88 88 88 88 88 88 91 96 102 103 103 102 100 97 96 97 95 90 87 86
24 21 19 19 20 21 22 24 26 28 29 29 30 31 31 32 32 33 34 35 36 36 38 39 38 39 42 42 41 42 41 39 40 46 50 50 51 54 55 55 58 62 65 67 73 81 87 93 97 98 97 95 90 84 79 75 73 74 73 72 72 73 73 75 77 78 78 77 77 77 77 79 83 90 97 102 103 101 98 96 96 95 91 92 94
22 21 21 23 24 27 29 30 31 31 32 32 32 32 33 33 33 33 34 36 37 38 39 38 40 46 53 56 58 59 58 52 51 57 65 67 69 74 76 75 78 82 85 89 94 99 100 100 99 97 95 94 91 87 81 77 74 74 73 73 73 72 72 72 73 74 73 74 75 75 74 75 77 82 93 102 103 102 101 99 98 96 94 96 98
24 25 27 29 31 32 32 33 33 33 34 33 32 30 30 32 34 35 35 36 37 39 41 48 64 79 83 83 86 89 85 77 71 72 80 87 92 95 95 95 97 98 98 99 101 101 101 101 100 97 95 92 90 87 84 83 83 82 82 81 80 79 79 78 77 77 77 78 79 80 80 81 82 86 95 103 103 101 101 100 100 100 99 99 99
29 31 32 32 33 34 33 33 33 32 32 31 30 29 29 31 34 38 41 42 43 43 46 60 82 96 97 97 100 101 99 97 91 86 86 91 98 102 101 99 99 100 99 100 101 101 101 101 100 100 99 98 97 96 95 95 95 95 94 93 92 92 90 88 85 83 83 84 85 86 87 89 91 93 99 103 103 101 101 100 100 101 101 100 100
34 34 34 33 33 34 33 32 30 28 28 30 32 34 37 37 35 37 42 47 53 55 56 62 72 80 88 97 101 99 99 102 100 94 91 91 94 98 100 99 97 97 99 101 102 102 102 101 101 101 101 101 101 100 100 100 100 100 100 100 99 98 98 97 96 94 94 95 96 96 95 96 96 97 99 102 103 101 101 101 100 101 101 100 101
35 34 34 33 32 32 30 29 29 30 32 36 39 42 47 51 49 45 43 45 51 58 62 65 70 75 82 89 93 94 95 96 97 97 96 93 91 92 96 100 101 101 101 101 101 101 101 100 101 100 100 100 100 100 100 100 100 100 101 101 101 101 100 101 100 100 101 102 103 104 103 102 103 102 100 101 103 102 102 101 100 100 101 100 100
35 35 36 33 30 29 29 30 34 38 40 44 49 51 54 59 63 61 58 55 51 51 54 59 68 78 83 84 87 90 91 90 90 90 89 88 89 92 96 99 101 100 101 101 102 102 101 100 101 101 101 101 101 101 101 101 100 100 101 100 100 100 100 100 100 100 100 100 101 102 103 103 104 105 104 102 102 102 102 102 101 100 101 100 101
37 36 35 32 28 29 33 37 40 43 45 48 54 58 60 63 67 71 74 74 70 65 61 61 67 76 83 86 88 91 92 91 88 86 87 90 94 97 98 97 95 93 93 94 96 98 100 101 102 102 102 102 101 100 100 100 100 100 100 100 100 101 100 100 100 100 100 100 100 100 100 101 101 102 103 104 104 104 102 101 101 101 100 100 101
36 32 30 31 33 38 42 45 47 50 53 55 59 62 65 67 71 75 78 81 83 83 79 75 74 77 81 88 94 98 98 96 92 91 95 98 99 100 101 100 98 96 92 90 91 95 99 101 102 103 104 104 103 103 102 102 102 101 101 101 101 101 101 100 101 100 100 101 101 100 100 101 100 100 100 101 101 102 103 102 102 101 100 100 101
32 29 30 36 42 46 48 49 52 56 58 61 64 67 69 71 74 78 81 84 87 89 87 84 83 81 79 84 94 100 101 99 96 95 97 100 101 101 102 102 103 102 99 95 94 94 96 97 99 102 103 102 102 102 102 102 102 101 101 101 100 101 101 101 101 102 101 101 101 101 101 101 101 101 101 101 101 101 100 100 101 101 101 101 102
29 32 38 43 47 49 49 50 53 57 60 64 69 72 72 73 75 78 83 86 87 88 88 88 89 88 86 88 96 102 103 101 97 95 95 96 98 99 100 101 102 103 101 99 97 95 94 94 95 96 97 97 98 100 101 100 99 98 97 97 97 97 98 98 98 98 99 100 100 101 102 101 101 100 100 101 102 102 101 101 100 100 100 101 101
31 38 45 50 51 52 54 55 59 63 65 65 67 68 68 69 72 76 80 83 86 88 90 92 93 93 95 99 103 103 103 102 98 95 93 93 93 96 98 100 103 104 105 104 102 100 98 96 94 95 96 97 99 101 102 101 100 99 97 96 96 96 96 97 95 92 88 87 91 96 99 100 100 101 101 101 101 101 101 101 101 100 100 101 100
36 42 49 53 56 58 61 65 67 66 62 58 58 61 65 68 73 79 83 87 91 94 97 99 98 97 99 104 106 103 102 101 100 97 95 93 93 96 98 101 104 106 106 105 104 103 102 101 100 100 100 100 99 99 99 99 100 100 99 99 98 97 97 97 97 93 87 82 83 88 93 95 95 96 97 97 99 101 101 100 100 100 100 100 100
43 49 54 58 63 66 66 65 61 56 53 54 59 66 73 78 83 87 91 95 99 101 102 102 100 99 101 104 105 104 102 101 100 100 99 98 98 99 100 103 106 106 104 103 103 104 103 103 102 101 99 98 96 94 95 96 97 97 98 99 99 99 98 96 94 91 85 80 80 84 89 90 89 89 89 87 88 91 94 96 99 100 100 100 100
54 59 62 64 67 65 58 51 46 46 53 64 72 78 82 85 87 90 93 97 101 103 103 103 101 100 101 101 102 103 103 102 101 101 101 100 100 100 101 103 104 104 103 102 101 101 101 101 101 100 99 99 98 97 97 97 98 98 98 99 100 101 100 98 98 94 87 82 84 90 92 91 91 92 92 90 87 85 84 87 91 94 98 101 101
65 67 67 63 58 51 44 41 45 56 69 77 80 81 82 83 85 89 93 98 101 103 104 103 101 99 99 98 98 101 102 101 101 101 100 100 101 100 101 103 103 103 103 102 100 100 101 100 100 100 100 99 100 100 99 99 100 100 100 100 100 101 100 100 101 99 93 89 93 98 98 96 96 97 95 93 91 90 88 88 89 91 94 98 100
69 65 58 50 43 38 39 46 60 73 81 81 78 77 78 81 85 89 93 97 101 103 103 101 99 99 99 99 100 100 100 100 100 101 100 101 101 101 102 104 103 102 102 101 100 100 101 100 101 101 101 101 102 102 100 100 101 101 101 102 104 104 103 101 98 94 92 94 97 100 100 99 97 93 88 84 86 89 90 91 91 90 91 93 96
62 52 43 38 36 37 45 60 75 82 81 77 75 76 79 83 87 90 94 98 102 104 102 100 100 100 100 100 100 100 100 100 100 100 101 101 101 101 102 102 101 101 100 100 100 99 100 100 100 98 96 96 97 97 97 98 98 98 98 99 97 94 93 95 94 94 96 99 97 96 98 99 96 90 86 85 89 93 93 90 87 86 87 89 92
47 40 38 38 38 43 55 71 82 82 78 76 76 77 81 86 89 92 96 101 105 106 103 101 101 101 100 101 101 100 100 101 100 100 101 101 100 101 101 100 100 101 100 100 100 100 99 99 97 95 94 94 96 97 98 98 99 99 98 94 88 83 86 93 98 100 102 101 96 95 99 102 101 99 97 96 97 99 97 91 86 84 86 90 94
40 39 41 41 42 51 67 79 84 81 77 77 79 80 84 88 91 94 98 102 106 107 106 104 103 102 100 100 100 100 100 101 100 100 101 100 100 101 100 99 100 100 100 101 102 101 99 98 98 97 97 96 94 93 91 90 93 99 99 94 90 89 94 99 101 103 103 100 95 96 100 103 103 104 101 99 100 103 101 97 92 88 89 93 97
41 42 43 43 50 63 76 83 85 82 79 78 80 82 87 90 92 95 100 103 106 107 108 108 107 104 101 100 100 100 100 101 100 100 101 100 100 100 100 99 100 101 100 100 100 99 99 100 98 94 90 86 83 80 79 79 83 89 92 93 95 98 100 101 99 98 97 93 87 88 95 99 101 102 101 101 104 105 103 98 96 95 97 99 100
45 45 44 46 54 67 79 86 87 84 80 80 81 84 87 91 93 96 101 105 106 106 107 108 107 106 104 103 101 100 100 101 100 100 100 100 100 100 100 100 100 99 97 97 99 99 99 96 89 82 79 80 81 82 82 83 85 87 89 94 99 100 99 98 97 94 93 91 89 91 94 97 98 99 99 99 100 99 96 95 97 100 103 103 101
47 46 46 48 54 66 80 89 90 87 83 82 83 85 88 92 95 98 102 106 105 104 104 105 105 104 104 104 102 100 100 101 100 100 100 100 100 100 100 99 98 97 97 99 100 98 93 85 78 75 77 82 87 90 91 90 90 91 92 96 99 98 96 96 98 98 99 98 98 99 100 100 102 102 100 99 99 98 96 98 101 103 102 101 99
48 46 47 50 56 69 83 91 93 90 86 83 84 87 91 94 97 101 105 106 105 103 103 103 102 101 101 102 102 101 101 100 100 100 100 100 100 100 99 99 99 100 100 99 96 90 83 77 74 75 78 81 86 90 91 90 90 91 93 93 92 90 90 90 91 94 97 99 100 102 103 103 104 104 102 101 102 100 99 100 101 101 100 99 99
Wind_Speed
18 19 20 21 23 24 25 26 26 28 29 31 33 34 35 36 37 38 40 43 44 46 48 49 50 49 49 48 48 47 47 47 46 46 47 47 48 48 48 48 48 48 48 48 47 46 44 42 40 37 33 30 28 25 24 23 22 24 25 27 28 29 30 32 36 40 39 36 36 35 34 33 33 32 31 32 32 32 33 35 36 37 37 37 36
19 20 20 21 23 25 25 26 26 27 28 29 31 32 33 33 33 35 37 38 40 42 44 46 47 47 47 47 46 46 46 46 46 46 47 47 48 48 48 49 49 49 49 49 48 47 45 43 41 38 34 31 28 26 25 23 24 25 26 28 29 30 30 32 35 38 40 38 36 36 35 34 35 34 32 32 32 32 33 34 34 35 36 36 36
21 20 21 23 25 26 27 27 27 28 28 28 29 30 31 31 31 31 33 34 36 39 40 42 43 44 44 45 44 44 45 45 45 46 46 47 47 48 49 49 49 50 50 50 49 48 46 45 43 39 34 31 29 27 26 25 25 26 27 28 29 30 31 32 34 37 39 39 37 36 35 35 35 35 33 33 33 33 34 34 34 34 34 34 35
22 22 23 26 28 28 28 28 27 27 27 27 27 28 28 28 28 28 29 31 33 35 36 38 40 41 42 43 43 44 44 44 45 45 46 46 47 47 48 49 49 50 50 49 49 48 47 46 44 39 34 32 30 28 27 26 27 27 28 28 30 31 31 32 34 35 37 39 38 36 35 35 36 35 34 34 34 34 34 35 35 34 34 33 34
23 23 26 29 30 29 28 28 27 26 25 24 25 26 26 26 26 25 26 28 30 31 33 35 37 38 40 41 42 43 43 44 44 45 45 45 46 46 47 48 48 49 49 49 48 48 47 46 43 38 33 31 30 29 28 28 28 28 29 30 30 31 32 32 33 34 36 39 39 37 36 36 37 36 35 35 35 35 35 35 35 34 34 33 33
23 25 28 30 29 28 28 27 25 24 23 23 24 24 25 24 24 24 24 26 27 29 30 32 34 36 38 39 41 42 42 43 43 43 44 44 45 45 46 47 48 48 48 48 47 47 46 44 40 35 33 32 30 29 29 29 29 30 30 31 31 32 32 33 34 34 36 38 39 38 37 37 37 38 36 34 35 35 35 36 36 35 34 34 34
25 27 29 29 27 26 26 24 23 22 23 23 23 23 23 23 23 23 23 24 26 27 29 31 32 34 36 38 39 40 40 41 41 42 42 43 44 44 45 46 47 47 48 47 47 46 44 41 37 34 33 31 30 30 30 30 30 31 31 32 32 32 33 34 34 35 36 37 38 38 38 37 37 38 37 34 34 36 35 36 37 37 35 35 35
28 30 29 27 25 23 21 20 20 20 21 21 22 22 22 22 22 22 23 24 25 26 27 29 31 33 34 36 37 38 38 39 40 40 41 42 43 44 45 45 46 47 47 47 46 44 41 38 36 34 32 31 30 31 31 31 31 32 32 32 33 33 34 34 35 35 36 37 38 38 37 38 38 38 37 35 36 37 36 35 38 38 36 36 36
29 27 25 22 19 17 16 15 16 16 17 18 19 20 21 21 21 21 22 23 24 25 26 27 29 30 32 33 34 36 37 37 38 39 40 40 42 43 44 45 46 46 46 45 44 41 39 37 34 32 31 31 31 32 32 32 32 33 33 33 34 34 35 35 35 36 36 38 39 38 38 39 39 39 38 37 37 37 35 34 37 37 36 36 36
24 21 18 15 14 14 13 13 14 14 15 16 17 18 19 19 19 20 20 21 22 23 24 25 27 28 30 31 33 34 35 36 36 37 37 39 40 42 43 44 44 44 44 43 41 39 37 35 33 32 31 32 32 33 33 34 34 35 35 35 35 35 35 36 36 37 37 39 40 39 40 41 40 38 38 37 35 35 34 34 36 36 35 36 37
18 15 14 13 13 14 14 14 14 14 14 15 16 17 17 18 18 18 19 20 20 22 23 25 26 27 29 31 32 33 33 33 33 34 35 37 38 40 41 42 42 42 42 40 39 37 35 34 32 32 32 33 34 35 35 36 36 37 37 37 36 36 36 37 37 38 38 40 41 40 41 42 41 39 38 37 35 35 35 34 35 35 34 35 36
14 13 14 14 14 14 15 15 15 15 15 16 17 17 18 18 17 18 18 19 20 21 22 24 25 26 28 29 29 30 30 29 30 31 32 34 36 37 38 39 40 39 39 38 36 35 33 33 32 33 34 35 35 36 37 37 38 38 38 38 38 38 38 38 39 39 40 41 42 42 42 42 41 39 37 36 35 34 33 33 34 34 34 34 35
14 14 14 14 15 15 16 16 16 16 17 17 17 17 17 17 17 17 17 18 19 20 21 23 24 24 25 26 26 27 27 27 28 29 30 31 31 32 34 35 35 35 35 35 34 34 33 33 33 35 35 36 36 37 38 39 39 39 39 39 39 39 39 38 38 38 39 40 42 42 40 40 40 39 36 35 34 33 34 34 34 34 34 35 36
14 14 14 14 15 16 16 17 17 16 16 15 15 15 15 16 16 16 16 17 18 19 20 21 22 22 23 23 24 26 26 25 26 26 27 26 25 27 30 31 30 31 32 33 33 33 33 33 34 36 36 37 38 39 39 40 39 39 39 39 39 39 39 38 37 37 38 39 42 43 41 40 41 40 36 36 36 36 36 36 36 35 36 36 37
14 15 15 15 15 16 16 16 15 15 14 13 13 13 13 14 14 14 14 15 16 16 17 18 19 20 20 21 22 24 23 22 21 21 22 22 22 24 27 29 30 30 31 32 33 33 33 34 35 37 38 38 38 38 39 39 38 38 37 38 38 38 39 39 39 39 40 41 43 45 43 42 42 40 36 34 34 34 32 33 33 33 35 36 36
15 15 15 15 15 15 15 15 14 14 13 12 12 11 11 12 12 12 13 13 14 14 15 16 16 17 18 19 20 20 20 18 18 19 20 21 22 23 26 29 31 32 33 33 33 34 35 36 37 38 38 38 37 37 37 37 37 37 37 37 37 38 38 37 36 36 37 38 40 42 41 38 36 36 34 31 30 28 26 28 30 30 34 37 37
16 16 16 15 15 15 14 14 14 13 12 12 11 11 11 11 11 11 12 12 13 13 13 14 14 15 16 17 18 18 18 18 18 20 21 22 24 26 29 31 33 35 36 36 35 35 36 36 36 36 37 38 37 37 36 35 35 36 36 36 37 38 38 37 35 34 34 33 34 36 37 35 34 33 32 31 31 30 30 32 32 30 34 38 39
15 15 15 15 15 15 15 15 14 13 13 12 12 12 11 12 12 12 12 13 13 13 14 14 14 15 16 17 18 19 19 19 21 23 25 26 27 29 31 32 34 36 37 37 37 36 36 35 34 35 38 39 39 38 36 33 33 34 36 37 38 40 40 39 38 37 35 33 32 32 34 35 35 35 36 35 36 35 38 41 38 36 38 41 41
14 14 14 15 15 16 15 15 14 13 13 13 13 13 13 13 13 13 13 14 14 14 15 15 16 17 18 19 20 22 23 23 25 27 28 29 30 30 31 31 33 34 35 36 37 38 38 38 37 38 40 40 38 36 34 32 32 35 36 38 40 42 40 39 39 39 38 37 35 32 32 32 32 34 36 37 37 37 39 41 39 39 41 42 42
14 14 15 16 16 15 15 15 14 13 13 13 14 14 14 14 14 15 14 15 15 15 16 17 18 19 21 22 24 25 27 27 27 28 28 28 28 28 28 29 30 32 33 35 36 37 37 38 38 37 37 36 35 33 31 30 32 35 36 39 41 41 40 39 39 40 40 41 40 38 36 34 32 33 34 35 36 37 39 40 39 39 39 39 38
14 15 15 16 15 15 14 14 14 14 14 14 15 15 16 16 16 16 16 16 16 17 18 20 21 23 23 25 26 27 27 28 27 26 25 25 25 24 25 26 28 30 32 33 34 35 36 36 35 34 34 34 34 33 32 30 31 34 37 39 40 39 39 40 40 40 41 42 41 41 41 40 37 36 35 35 35 36 38 40 41 42 42 41 40
15 15 15 15 15 15 15 15 15 16 16 16 16 16 16 17 17 17 17 18 18 19 20 21 23 24 25 26 26 26 26 26 26 24 23 23 23 22 23 25 26 27 30 31 32 33 34 34 34 33 32 33 33 33 32 31 31 32 34 35 35 35 35 36 38 39 40 41 41 41 42 41 40 38 36 36 35 35 37 39 40 41 43 43 44
16 16 15 16 16 16 16 17 16 17 16 16 16 16 16 16 16 17 17 18 19 20 21 22 23 25 25 25 25 25 25 24 24 24 23 23 22 22 23 24 24 25 28 30 31 32 33 33 34 34 33 33 33 32 32 31 30 31 32 33 33 33 33 34 35 34 34 36 38 41 41 41 42 41 40 38 36 35 35 36 36 37 38 39 41
16 16 16 17 17 16 16 16 15 15 14 14 14 14 14 14 15 16 17 18 19 20 20 21 23 24 24 24 23 22 22 22 22 22 22 22 22 22 23 23 23 23 25 28 30 31 31 32 33 34 33 31 31 30 29 29 30 31 31 32 33 33 33 34 34 33 31 30 31 34 36 37 38 40 41 40 38 36 35 34 33 34 35 36 36
16 16 16 16 15 15 14 13 13 13 13 13 13 14 14 15 15 15 16 17 19 20 20 20 21 22 23 23 22 21 20 20 21 20 21 21 21 22 22 22 22 23 24 27 29 30 31 32 33 32 32 31 31 31 32 32 33 33 33 34 35 36 35 36 36 36 36 35 33 32 32 32 33 35 37 37 36 36 36 35 34 34 34 35 35
15 15 15 14 14 13 13 13 13 13 13 13 13 14 14 15 15 15 16 17 18 19 19 20 21 22 22 22 22 21 20 20 21 21 21 21 21 21 21 22 22 23 25 27 28 30 32 33 33 33 33 34 35 36 37 37 38 38 38 38 39 40 40 40 41 41 42 42 42 41 40 38 36 36 35 35 36 37 37 36 36 35 34 35 37
14 13 13 13 13 13 13 13 13 13 13 13 14 14 15 15 16 16 16 17 18 18 19 19 20 21 22 21 21 21 20 21 21 21 20 20 21 22 22 23 23 23 24 24 25 26 27 26 27 27 29 30 32 34 36 38 39 40 40 41 41 42 42 43 44 44 44 44 45 46 45 44 42 40 38 38 39 40 39 38 38 38 36 35 36
13 13 13 13 14 14 14 14 14 13 14 14 14 14 15 16 16 16 16 17 18 19 19 20 20 20 20 19 20 20 20 20 20 19 19 20 21 22 22 23 23 22 22 21 21 22 22 23 24 25 26 27 28 30 31 33 34 36 37 37 38 39 39 40 41 41 42 43 43 44 44 44 43 42 40 39 39 40 40 40 40 40 38 36 37
13 14 14 14 15 15 15 15 15 15 15 15 15 15 16 16 17 17 16 17 18 19 19 20 19 18 18 18 19 20 21 19 18 18 20 21 22 23 23 24 24 24 24 24 24 24 25 26 26 26 26 27 28 29 30 31 31 32 33 33 34 35 36 37 38 38 38 38 39 40 40 40 41 40 39 39 38 38 39 39 40 40 39 38 39
14 14 15 15 15 16 16 16 16 16 17 17 16 15 15 15 17 17 16 16 17 18 19 19 18 18 20 22 23 23 25 23 21 21 22 23 23 24 26 27 27 28 28 26 25 25 26 26 26 27 27 27 29 30 31 32 32 33 34 35 35 36 36 36 37 36 36 36 36 37 37 37 38 38 37 38 38 37 37 38 39 40 40 41 42
15 15 15 16 16 17 17 17 17 17 17 17 17 16 15 13 14 15 16 17 17 17 17 17 16 17 19 21 22 24 25 25 24 24 24 23 23 25 26 26 26 27 26 24 23 24 24 24 25 26 26 27 29 30 31 32 33 34 35 35 35 35 35 36 35 35 35 35 35 35 35 36 36 36 36 37 37 37 37 37 38 39 40 41 42
16 16 16 17 17 17 17 17 17 16 16 16 17 18 18 17 15 14 15 16 18 18 18 17 17 17 17 18 20 21 22 22 21 21 22 23 25 28 29 29 28 29 29 28 28 29 29 29 29 29 29 29 29 29 30 30 31 31 32 33 33 33 34 34 33 33 34 35 35 35 36 36 36 36 36 36 36 36 37 37 38 39 40 41 42
17 17 17 18 18 17 17 17 16 16 17 17 17 18 19 20 20 18 17 16 17 18 18 18 18 18 18 19 20 21 22 22 21 22 24 26 27 29 30 30 29 28 27 28 29 31 32 32 32 32 31 30 30 28 28 27 27 27 27 27 27 27 27 28 29 30 31 32 33 34 35 35 36 36 37 36 36 36 37 38 38 39 39 40 41
18 18 18 18 18 17 17 16 16 16 17 18 18 19 19 20 22 23 22 21 20 19 18 19 19 20 20 21 21 21 21 21 21 22 23 23 23 23 25 26 26 25 25 26 28 30 30 31 31 31 31 31 30 30 29 28 28 28 28 27 27 26 26 25 25 25 26 26 27 28 29 30 31 33 35 36 37 37 37 37 38 38 39 40 39
19 19 18 18 18 17 17 17 17 18 18 19 19 20 21 21 22 23 23 24 24 23 22 21 20 21 22 22 22 21 21 22 22 22 21 19 18 19 21 23 25 26 26 26 28 29 29 30 31 31 31 31 30 30 30 30 30 30 30 30 31 31 31 30 30 29 28 27 27 26 25 25 25 25 26 29 33 35 37 38 39 39 39 40 40
19 18 18 17 17 17 18 19 19 20 20 21 21 21 22 22 23 23 23 24 25 25 25 24 22 21 22 22 21 21 21 22 22 21 19 16 17 20 23 24 26 27 26 26 27 28 28 29 28 28 28 28 28 28 29 29 30 31 31 31 32 32 33 33 34 34 33 32 32 31 30 28 26 24 23 22 24 26 30 34 37 39 40 41 41
19 18 17 17 17 18 18 19 20 20 21 21 22 23 23 23 23 24 24 24 25 25 26 26 25 24 23 21 21 22 22 22 21 21 19 18 20 22 23 24 25 25 25 24 24 25 26 26 25 25 25 24 25 25 25 26 27 27 28 28 29 29 30 30 30 31 31 32 32 32 31 31 30 29 28 26 23 22 22 23 26 30 33 36 37
18 18 17 18 18 19 20 20 20 21 21 22 22 23 24 24 24 24 24 25 25 26 26 26 26 26 25 23 21 22 23 23 22 22 21 21 21 22 22 22 23 23 23 22 22 22 23 23 23 23 23 23 24 24 23 23 24 24 24 24 24 24 24 24 24 25 26 27 27 27 27 27 26 26 27 27 26 26 24 23 22 22 24 25 27
18 18 18 19 19 20 21 22 22 22 23 23 23 23 24 24 25 25 25 26 26 26 27 26 26 26 25 24 23 23 23 24 23 22 22 21 21 22 22 23 23 23 23 22 21 20 21 22 22 23 24 24 24 24 23 22 22 21 21 21 21 21 21 21 20 21 21 21 22 23 23 23 23 22 21 21 22 22 23 24 24 23 23 23 23
18 18 19 19 20 21 22 23 23 23 24 24 24 24 25 25 25 26 26 26 27 27 27 27 27 25 24 23 23 22 23 23 22 22 22 22 22 22 23 24 24 24 23 21 20 19 20 21 22 23 23 23 23 22 22 21 21 21 20 20 20 20 20 19 19 20 20 19 19 19 20 21 21 21 21 21 21 21 22 23 23 23 23 23 23
19 19 20 20 21 22 23 23 23 23 24 24 25 25 25 26 26 26 26 27 27 28 27 27 27 25 22 21 21 20 20 20 21 21 22 23 23 23 23 23 23 22 21 19 18 18 18 19 19 20 20 20 20 21 21 21 21 21 20 20 19 19 19 19 19 19 19 18 18 18 19 19 18 19 19 19 19 20 20 22 23 24 25 26 26
20 20 21 21 22 22 23 23 23 23 24 24 25 25 25 26 26 26 27 27 27 28 28 28 26 24 21 20 19 19 20 21 21 22 22 22 22 21 21 20 20 18 17 17 16 16 16 17 17 18 18 19 20 20 21 21 21 20 20 19 18 17 16 16 17 17 17 18 18 17 17 16 16 16 16 16 16 16 16 17 19 20 22 24 25
21 21 22 22 22 23 23 23 23 23 24 24 25 25 25 25 26 26 27 27 27 27 27 27 26 23 21 20 20 20 21 21 22 21 21 20 19 18 17 17 16 16 15 15 15 15 16 17 18 19 19 20 20 20 20 20 19 19 19 19 18 17 16 16 16 17 17 17 17 16 15 14 14 15 15 15 15 15 15 15 16 17 18 19 20
21 22 22 23 23 23 23 23 23 24 24 24 25 25 25 25 26 27 27 28 28 27 26 25 24 23 22 22 21 21 21 20 20 19 19 18 17 16 15 15 15 14 14 14 15 16 17 18 19 20 21 20 20 20 20 19 19 19 19 19 19 19 19 19 19 19 17 16 15 14 13 14 14 14 14 14 14 14 14 15 16 16 17 18 19
21 22 22 23 23 23 22 22 23 23 24 24 25 25 26 26 27 27 28 28 27 26 25 24 23 22 22 21 20 20 19 18 17 17 16 15 14 14 14 14 14 14 15 16 17 18 19 20 21 22 21 21 20 20 20 20 20 20 20 20 21 21 21 20 19 17 15 15 15 14 14 14 14 14 14 14 14 14 15 15 15 15 16 17 19
21 23 23 24 24 23 22 22 23 23 24 25 25 26 27 27 27 28 27 27 26 25 24 22 21 20 20 19 18 17 17 16 15 14 13 13 13 14 14 14 15 15 16 17 18 19 20 20 21 20 20 20 21 21 22 23 22 22 21 21 21 21 18 16 14 14 14 15 15 15 14 14 14 14 14 14 14 15 15 15 15 15 15 16 17
23 23 24 24 24 23 23 23 23 23 24 25 26 26 27 27 27 28 27 26 25 23 22 21 19 18 18 17 17 16 15 14 13 13 13 13 14 14 15 15 16 16 17 18 19 19 19 19 19 20 21 22 23 23 23 23 22 23 22 19 17 15 12 11 11 12 13 14 14 14 13 13 13 13 14 14 14 15 16 16 16 16 15 15 16
23 23 23 23 23 22 23 23 23 24 25 25 26 26 27 27 28 28 27 25 24 22 20 19 18 17 17 17 16 16 15 14 13 13 13 14 14 14 15 16 17 18 19 18 18 18 18 19 20 21 21 19 18 16 15 15 16 16 16 13 10 10 10 11 12 13 13 14 14 13 12 12 12 13 14 14 15 16 16 17 17 17 16 16 17
23 23 23 22 22 22 23 23 23 24 25 25 26 26 26 27 28 27 26 25 23 20 19 18 17 17 17 17 16 15 15 14 13 12 12 13 14 15 16 17 18 18 18 17 17 18 19 19 19 17 14 12 11 10 11 11 10 9 9 8 8 10 11 11 12 13 13 13 13 12 12 12 12 13 14 15 16 16 17 16 16 16 16 17 18
22 22 22 22 22 22 22 22 23 23 24 25 26 26 27 27 28 27 26 24 22 20 18 17 16 16 16 15 15 15 14 13 12 12 12 14 15 17 18 18 17 16 16 16 17 18 18 16 14 12 10 9 9 9 9 9 8 7 7 8 9 10 11 12 13 13 13 12 12 12 12 13 13 13 14 14 15 15 15 15 15 15 16 17 18
22 22 22 22 22 22 22 22 22 23 23 24 25 26 27 27 28 27 26 23 21 19 18 16 16 15 14 14 13 13 11 11 11 13 14 16 17 17 17 16 15 15 16 16 16 15 13 12 10 10 9 8 8 8 8 8 8 8 8 9 10 11 12 12 13 13 13 13 13 13 13 14 14 14 14 14 14 14 14 14 14 14 15 16 17
Wind_Direction
293 296 297 294 290 289 288 287 285 282 279 276 274 273 272 270 269 269 267 265 262 259 257 256 256 256 256 255 255 254 253 252 252 251 251 251 251 250 250 249 249 250 250 249 249 249 248 248 249 249 247 247 249 252 257 262 269 271 268 265 262 260 259 257 261 269 272 271 271 274 276 276 275 273 272 271 269 267 266 266 267 270 272 275 277
292 295 296 294 293 294 294 291 288 283 278 275 273 273 272 272 271 270 268 265 263 260 257 256 255 255 255 255 254 254 253 253 252 251 250 250 249 248 248 247 247 247 247 247 248 249 249 249 249 248 246 247 249 252 257 263 267 269 268 265 263 262 260 259 261 266 271 272 272 274 276 277 277 277 276 276 275 274 272 270 270 271 273 275 276
290 292 295 297 298 297 294 290 286 281 276 273 272 272 272 272 272 270 268 266 263 260 257 255 254 254 254 254 254 253 253 253 252 251 251 250 248 247 246 246 245 246 247 248 248 249 249 250 250 248 246 247 249 253 258 263 266 268 267 265 264 263 262 260 261 264 269 272 272 272 275 276 277 278 279 279 279 278 278 278 277 277 277 277 277
286 288 294 300 302 298 293 288 283 278 275 272 272 272 273 273 272 270 267 264 261 259 257 255 253 253 253 253 253 253 253 253 252 252 251 249 248 246 246 246 246 247 248 249 248 249 250 251 250 248 247 248 251 254 259 263 265 267 267 265 263 263 263 261 261 263 267 271 271 271 273 275 276 277 278 278 279 279 280 281 281 280 280 279 279
281 286 296 303 302 296 290 286 282 278 276 274 273 272 273 273 273 271 267 264 261 258 256 253 252 252 252 253 253 254 254 254 253 252 251 250 248 247 246 247 248 248 249 249 249 249 250 251 250 248 247 249 252 256 261 265 267 267 267 266 264 264 264 263 263 263 264 267 270 271 271 273 275 276 275 276 279 280 280 281 280 280 279 278 278
280 290 300 303 299 292 286 283 280 277 275 274 272 272 272 273 272 270 266 263 261 258 256 254 253 253 253 253 254 254 254 254 254 253 252 251 249 248 248 248 249 249 249 249 249 249 249 250 249 247 248 250 253 258 263 265 267 267 266 266 266 266 266 264 264 263 263 265 268 269 269 271 273 275 275 275 278 280 280 280 279 278 278 278 278
287 297 301 300 293 286 282 279 276 274 272 270 270 270 271 270 269 267 265 262 260 259 257 255 255 254 254 254 254 254 254 255 255 254 254 252 251 250 249 249 249 249 248 248 248 247 248 248 248 248 250 253 257 261 263 265 266 267 266 266 266 265 265 264 263 262 262 264 266 267 269 270 270 273 276 276 277 277 277 277 279 280 280 281 281
296 299 298 292 285 279 276 273 271 270 269 268 268 268 268 267 266 264 262 260 259 258 257 256 256 255 255 255 255 256 256 256 256 255 254 253 252 252 252 251 249 248 247 246 246 246 247 247 248 251 253 257 260 262 264 265 266 266 266 266 265 264 264 263 263 263 263 264 266 268 269 269 270 272 275 274 272 274 275 276 278 281 282 281 281
297 295 289 281 275 271 270 269 269 268 268 267 267 267 267 266 266 264 261 260 259 258 257 257 256 256 256 256 256 256 256 256 256 255 255 254 254 254 252 250 248 246 245 244 244 245 246 248 250 253 256 259 262 263 264 266 267 266 266 265 264 264 264 263 263 263 263 264 266 267 267 267 269 271 273 273 273 276 279 276 276 279 280 281 280
291 284 276 271 269 270 272 272 272 271 269 267 266 266 267 266 265 264 262 260 259 258 256 256 255 255 255 255 256 256 256 256 256 256 256 256 255 254 251 248 246 245 244 245 245 246 247 250 253 255 258 260 261 262 264 266 267 267 267 266 265 264 263 263 263 263 263 263 265 266 265 266 269 271 273 275 276 277 278 276 275 278 279 279 279
280 273 271 273 275 278 279 278 277 273 270 267 266 265 265 264 263 261 260 259 258 257 255 255 254 254 255 255 256 256 256 256 257 257 257 256 255 253 251 249 247 246 246 247 248 249 250 252 254 256 257 258 259 261 264 265 267 267 268 267 266 265 264 263 263 263 263 263 265 265 264 266 271 273 273 276 277 276 276 275 275 276 275 274 276
274 276 279 282 283 283 283 281 279 277 275 273 272 271 270 269 266 264 262 260 259 257 256 256 255 255 255 255 256 257 258 259 259 259 257 256 255 254 253 251 250 249 249 249 251 252 253 254 255 256 256 257 258 261 263 265 266 267 267 267 267 266 265 265 264 264 264 264 265 265 265 269 272 273 273 275 276 275 275 273 272 271 270 269 270
282 286 289 290 289 289 288 287 286 285 283 281 279 277 275 273 271 268 265 262 260 259 258 257 257 257 257 257 258 259 260 261 260 259 257 254 252 253 255 254 252 251 251 252 253 253 254 255 255 255 256 257 259 261 263 265 266 266 266 266 266 265 265 263 262 262 265 266 266 266 267 269 271 272 273 275 275 275 274 272 271 269 267 266 267
291 294 294 293 292 292 291 290 289 288 286 284 281 278 275 272 269 267 264 262 260 260 259 259 259 259 259 259 260 259 259 260 260 258 256 251 244 246 254 256 254 253 254 255 256 257 256 256 255 255 256 257 259 261 263 264 265 264 264 263 263 263 264 262 259 257 259 261 263 267 270 271 271 273 275 275 275 274 274 274 273 271 270 270 272
295 295 294 293 292 292 291 290 290 290 288 286 282 279 275 272 269 266 264 262 261 259 259 258 258 257 257 257 258 259 258 258 256 253 248 243 238 242 250 256 257 256 257 257 258 258 258 257 257 257 258 259 260 262 263 265 265 265 264 263 262 262 261 261 261 261 260 257 257 261 267 271 273 275 276 276 275 276 276 277 276 275 274 273 271
296 295 295 295 294 293 294 295 296 297 295 292 288 284 280 276 273 270 268 266 264 262 260 260 258 257 255 254 255 256 255 252 250 248 243 240 241 244 247 253 257 258 259 258 257 257 257 256 257 258 260 263 265 267 268 268 268 268 267 266 266 265 264 264 265 265 264 263 261 261 264 269 272 274 276 275 274 275 275 271 269 268 266 265 265
300 299 299 298 296 296 299 301 303 303 301 299 295 290 286 282 280 278 276 274 272 270 268 265 263 260 258 256 256 255 254 252 251 250 249 248 250 250 250 252 254 256 258 258 257 256 255 255 256 258 261 266 269 271 271 267 266 268 268 269 270 270 270 273 274 271 267 267 267 267 268 269 269 270 272 272 272 274 269 262 260 260 259 259 261
303 300 297 294 294 297 300 302 304 303 301 299 295 293 290 287 285 285 283 281 279 276 273 269 265 263 261 260 259 256 254 253 253 254 255 257 258 258 256 255 253 253 254 255 255 255 255 255 255 255 259 265 269 270 269 262 258 260 263 266 268 268 271 275 276 275 274 270 267 265 264 265 265 264 265 266 268 269 265 263 265 264 260 259 261
299 294 289 289 292 296 298 300 300 299 297 294 292 290 289 288 287 287 286 284 281 278 275 272 269 267 264 262 261 260 260 259 259 261 263 264 264 262 259 256 253 252 253 253 253 253 253 253 254 255 259 264 266 268 269 264 258 258 259 260 261 263 268 274 275 275 276 275 272 269 266 264 262 261 260 259 259 258 257 259 263 262 259 259 261
295 291 288 290 292 294 296 296 295 294 291 289 288 287 287 287 287 286 285 283 280 278 276 274 271 269 269 267 267 267 268 269 268 269 269 268 266 263 259 255 254 254 255 255 255 256 256 257 259 261 262 264 265 268 271 269 266 265 263 259 258 261 266 271 273 274 275 275 276 276 274 270 266 263 260 258 256 254 253 253 255 256 257 258 257
295 293 292 293 293 293 294 293 291 291 289 287 287 286 287 288 287 286 285 282 279 277 276 275 274 272 273 273 274 275 276 277 277 275 273 271 267 263 259 256 255 257 258 258 258 258 260 262 264 266 267 266 265 267 268 267 266 266 265 263 264 267 269 269 270 272 272 273 275 276 275 273 270 266 263 260 257 254 253 253 254 255 257 257 256
296 295 295 295 295 295 295 293 292 291 289 289 289 288 288 289 287 287 285 282 281 279 278 277 277 277 278 280 281 283 284 284 284 280 277 273 269 264 261 259 259 260 261 262 262 262 264 268 269 270 271 270 270 270 271 270 268 267 267 267 268 271 271 271 271 270 269 270 271 272 272 272 271 268 266 263 258 255 253 253 253 255 257 258 258
296 295 295 294 294 294 294 293 293 293 292 293 293 292 292 291 289 288 287 284 283 282 282 282 282 283 285 286 286 288 288 287 286 283 280 275 270 265 262 260 260 260 262 264 266 267 269 272 274 274 274 274 276 277 277 276 273 271 269 268 267 268 268 268 268 267 267 267 266 266 267 268 269 270 270 268 265 262 259 257 258 258 258 259 259
296 295 295 295 296 296 296 296 296 297 298 298 299 299 297 295 294 292 290 288 287 286 287 288 287 287 288 288 288 288 288 286 284 281 278 275 271 267 263 261 260 260 260 262 264 267 269 270 273 277 278 278 278 278 276 273 270 269 267 265 264 263 263 263 262 262 263 264 263 263 264 265 267 269 272 273 273 271 268 265 263 261 261 261 261
297 298 298 298 299 299 300 302 302 303 304 303 303 303 300 298 298 296 293 292 290 290 291 290 290 290 291 291 292 291 289 288 285 282 279 275 272 270 268 266 264 261 259 257 256 257 259 262 266 270 273 274 272 270 268 265 263 261 260 259 259 259 261 261 262 263 263 263 264 265 264 264 265 268 271 274 275 274 270 266 263 259 259 260 261
302 303 302 302 303 303 304 306 305 305 307 306 305 305 302 300 300 297 296 295 293 293 294 293 294 294 294 296 298 297 293 290 288 287 286 284 281 277 274 271 267 264 263 261 260 260 259 261 263 263 264 264 264 264 264 263 262 261 260 259 260 261 263 264 266 267 268 268 268 268 268 268 267 267 268 269 269 269 268 267 265 261 257 257 258
307 307 305 304 306 306 307 309 308 307 308 307 307 306 304 302 302 300 300 300 298 298 299 298 298 299 300 301 300 297 294 293 292 292 292 289 286 283 280 278 276 274 271 270 269 268 268 269 270 268 266 264 262 262 262 262 263 263 263 263 264 265 267 268 270 272 273 273 273 272 272 272 271 269 267 266 265 266 267 267 266 264 261 259 256
309 308 308 307 308 309 309 309 308 308 308 308 308 307 306 305 305 306 306 305 303 303 303 302 302 302 301 300 298 296 295 294 295 297 295 289 286 286 285 284 284 284 284 283 282 282 281 278 276 272 270 269 267 266 265 265 265 266 266 267 268 268 270 271 272 273 274 274 274 274 274 274 273 271 268 265 263 263 264 264 264 264 264 260 255
310 310 310 310 311 311 311 312 312 312 312 312 311 310 310 309 308 309 309 307 306 306 305 305 307 307 305 303 302 302 301 299 300 301 299 296 295 295 295 296 295 295 295 296 294 291 287 282 279 275 273 272 272 272 272 272 271 272 271 272 273 273 274 274 274 275 276 275 275 275 275 274 274 272 269 265 262 260 259 259 259 260 260 258 256
311 310 311 312 312 312 313 314 314 314 313 312 311 311 311 310 309 310 311 309 308 309 309 309 309 308 306 306 306 304 303 303 303 302 299 297 295 293 292 293 294 294 295 296 293 287 283 281 280 278 277 275 274 274 275 276 277 277 278 279 279 279 280 279 279 279 279 278 277 277 276 275 274 272 268 265 263 260 257 255 255 255 254 254 254
312 312 312 313 313 313 314 314 313 313 313 313 313 314 313 311 309 309 310 310 308 308 308 306 302 297 295 297 299 299 300 302 301 297 295 294 290 282 277 275 276 278 282 287 286 283 281 281 281 281 281 280 278 278 279 279 279 280 281 282 282 282 282 282 282 282 282 281 279 278 277 275 273 271 268 265 263 261 258 256 254 252 250 250 251
313 314 314 314 314 314 314 314 314 314 315 315 316 316 315 314 312 309 308 308 308 309 307 304 299 295 290 289 289 288 289 291 290 286 282 279 277 275 274 275 275 274 274 275 275 275 276 277 277 278 279 279 279 280 280 281 281 282 282 282 282 282 282 282 282 281 279 278 278 277 275 274 272 271 269 266 264 261 259 256 253 251 249 249 248
314 316 315 315 315 315 315 316 316 317 318 317 316 316 316 316 316 314 311 308 305 304 304 303 301 298 293 288 286 282 280 279 279 276 273 271 271 273 276 277 278 277 275 273 271 271 272 273 274 274 275 275 276 276 276 275 275 274 274 273 273 273 272 272 272 272 272 272 272 272 272 272 270 269 267 264 262 260 258 256 254 251 248 246 245
315 317 316 315 316 316 316 317 316 316 316 316 316 317 317 316 316 315 314 312 308 304 303 303 303 302 298 294 291 290 288 285 282 279 278 278 279 279 276 274 272 271 270 269 269 269 270 270 271 272 273 273 274 274 273 271 269 267 265 263 262 262 261 261 262 263 263 263 262 263 264 265 265 265 263 261 259 257 255 255 253 250 246 244 244
315 316 316 316 316 317 317 316 316 317 317 318 318 318 317 316 315 313 313 313 312 310 308 306 305 303 301 299 300 299 296 293 290 288 290 294 295 288 279 274 273 272 272 273 275 277 277 276 276 276 276 276 275 274 273 272 271 270 270 269 268 267 266 266 266 266 265 264 262 260 259 257 256 257 258 257 256 254 253 251 250 248 247 247 247
314 316 316 316 315 316 317 318 318 319 319 319 318 316 315 314 313 312 311 311 310 310 309 308 307 303 300 302 305 304 299 296 294 295 297 296 288 280 276 277 279 281 281 281 281 281 281 281 281 281 280 279 277 276 274 273 273 273 274 274 274 273 272 271 271 271 271 271 269 267 265 263 260 258 256 253 252 251 251 250 248 247 247 247 247
315 316 316 315 315 316 316 317 318 318 318 317 316 315 314 313 312 312 312 311 310 309 309 309 310 307 304 306 307 304 300 297 295 293 292 287 281 278 279 281 284 285 285 284 282 280 279 279 281 282 282 282 281 281 280 279 278 277 277 277 277 277 276 275 274 273 272 272 272 271 271 269 268 267 266 263 258 255 253 250 247 244 244 244 243
315 315 316 315 315 315 315 316 317 316 316 315 315 314 313 313 313 313 312 311 310 310 310 311 311 309 309 310 308 304 301 298 296 294 293 291 290 290 291 291 292 293 293 291 287 283 281 279 280 282 284 285 287 287 287 286 285 283 282 282 282 282 281 280 278 276 274 273 273 273 272 272 272 271 271 269 267 264 262 260 256 250 246 243 242
315 315 315 315 315 315 316 316 318 317 316 316 316 315 315 316 316 315 314 313 312 312 312 311 310 309 310 311 308 305 302 300 298 297 296 295 296 297 298 299 300 300 300 297 293 288 286 284 284 284 286 287 288 289 290 290 290 289 288 287 286 286 287 286 286 285 284 282 278 274 272 272 272 272 271 270 267 264 262 260 258 255 251 247 244
315 315 314 314 314 315 316 317 318 318 317 317 317 318 318 318 318 317 316 315 313 313 312 310 309 309 311 310 308 307 306 303 301 300 299 299 300 300 300 301 300 299 297 295 291 286 283 282 281 283 284 285 286 287 288 290 290 291 290 290 289 288 288 288 289 290 290 289 286 282 278 277 277 276 274 272 269 266 263 259 257 254 252 250 246
315 315 314 315 315 316 317 318 318 318 318 318 319 320 320 320 319 318 316 315 313 312 311 309 309 310 310 308 306 306 304 300 297 295 295 296 296 296 295 294 294 294 293 291 289 286 284 283 283 284 285 285 286 287 287 288 288 289 288 288 288 287 287 288 288 288 289 290 289 286 285 284 284 284 282 279 276 273 269 266 263 260 258 257 256
315 315 315 317 318 317 318 319 319 319 319 319 320 321 320 320 319 318 316 315 314 312 310 309 309 310 309 305 304 303 301 298 296 295 294 293 291 290 290 290 290 291 291 291 291 289 288 287 287 287 288 288 288 288 288 287 287 287 287 288 288 287 286 286 285 286 289 292 293 291 289 288 288 288 289 289 287 283 279 275 272 269 266 264 263
316 317 319 320 320 320 320 321 320 320 320 320 321 322 321 321 320 319 317 315 313 312 310 309 309 310 309 307 306 304 301 299 297 296 295 293 292 292 292 293 294 294 293 291 289 287 286 287 288 288 288 288 288 288 288 288 288 288 288 287 287 285 284 283 283 285 287 289 290 290 290 288 287 286 286 287 287 286 284 282 279 276 273 270 267
319 320 321 321 321 321 321 321 320 320 320 321 321 323 323 323 321 320 318 316 314 312 310 309 310 310 309 307 305 302 299 298 297 295 295 295 295 297 298 298 297 295 292 289 288 287 286 287 289 289 289 288 287 286 285 284 283 284 285 285 285 285 284 284 286 287 287 284 283 284 286 285 282 281 283 286 287 286 284 282 280 277 273 270 268
321 321 322 322 322 322 322 321 320 319 321 322 324 325 326 325 323 321 319 317 315 313 311 309 308 307 305 303 302 301 299 298 296 295 295 295 295 296 297 297 296 294 291 289 289 288 289 290 292 293 293 291 288 286 284 283 282 281 281 281 283 285 286 286 286 285 283 280 280 281 282 281 280 282 285 286 285 284 285 286 286 283 275 268 265
324 324 324 324 324 323 322 321 321 322 324 326 326 327 327 326 324 322 320 318 315 312 310 307 305 303 302 302 302 303 302 300 298 297 298 298 298 297 297 296 294 293 291 291 291 292 294 295 296 295 294 292 289 287 285 284 282 281 280 280 282 284 286 286 286 284 282 281 281 281 281 283 284 285 285 283 281 281 284 288 290 289 281 270 264
327 326 325 324 323 323 322 322 323 325 327 327 327 328 327 326 325 323 321 319 316 312 309 306 304 303 303 304 304 305 304 302 300 299 298 298 297 296 294 294 294 294 294 294 295 296 297 297 297 296 294 292 290 288 286 284 282 281 282 282 283 283 284 283 282 282 282 282 283 282 282 283 284 282 280 279 280 282 285 287 290 290 283 273 267
327 326 325 325 323 322 323 324 326 328 328 328 328 328 327 326 326 325 324 321 318 314 311 307 304 303 303 303 303 304 303 301 299 297 293 293 294 294 295 296 296 296 296 296 297 298 299 299 299 298 296 294 293 296 298 295 289 283 280 279 281 285 286 282 280 282 283 283 284 283 280 279 277 275 275 277 279 282 285 286 285 282 278 271 268
328 327 326 325 324 323 324 326 328 328 329 328 328 328 328 328 328 327 326 323 320 316 312 309 305 303 302 300 298 298 297 296 295 293 290 290 293 294 296 297 296 297 298 300 300 301 302 302 301 300 297 296 301 308 313 312 306 294 282 277 280 286 287 285 285 287 286 285 285 282 278 275 272 272 275 279 282 284 286 285 280 275 271 268 268
329 328 327 326 325 325 326 327 328 328 328 328 328 329 329 329 329 329 327 325 321 317 314 310 307 304 302 299 297 295 292 291 292 292 292 293 295 296 296 297 298 300 301 301 301 303 304 305 305 303 299 296 301 307 311 312 312 305 294 286 283 283 285 285 287 287 285 283 281 278 276 275 275 276 279 282 285 287 287 281 274 269 267 268 270
329 328 327 326 326 326 327 327 328 328 329 329 329 330 330 330 331 330 328 325 321 318 315 312 310 307 304 300 297 293 290 288 289 289 290 292 294 296 297 299 301 302 302 302 304 307 308 309 310 309 304 297 295 296 299 302 304 303 300 295 292 291 292 292 290 287 283 280 276 273 272 272 273 276 279 282 286 290 289 281 272 268 266 266 268